Regional Weather Roundup
Issued by NWS Goodland, KS

Home | Current Version | Previous Version | Text Only | Print | Product List | Glossary Off
Versions: 1 2 3 4 5 6 7 8 9 10 11 12 13 14 15 16 17 18 19 20 21 22 23 24 25 26 27 28 29 30 31 32 33 34 35 36 37 38 39 40 41 42 43 44 45 46 47 48 49 50

000
ASUS43 KGLD 211308
RWRGLD

GOODLAND FORECAST AREA HOURLY WEATHER ROUNDUP
NATIONAL WEATHER SERVICE GOODLAND KS
600 AM MST TUE FEB 21 2017

...OFFICIAL OBSERVATIONS...

CITY           SKY/WX    TMP DP  RH WIND       PRES   REMARKS
GOODLAND KS    CLOUDY    41  13  31 SW12      29.98S
HILL CITY KS   CLOUDY    28  23  81 W6        30.03R
IMPERIAL NEB   CLOUDY    34  18  52 SW6       29.97S
MCCOOK NEB     CLOUDY    29  20  69 W7        29.99R
AKRON CO       CLOUDY    33  13  43 W13       30.01R
BURLINGTON CO  CLOUDY    34  16  47 W13       30.00R
LIMON CO       CLOUDY    33  17  51 NW8       30.06R
$$

...UNOFFICIAL OBSERVATIONS...

CITY           SKY/WX    TMP DP  RH WIND       PRES   REMARKS
LENORA KS        N/A     36  32  85 SW8         N/A
NORTON KS      CLEAR     28  19  69 SW5       30.00
SHARON SPRINGS   N/A     36  16  44 SW12        N/A
TRENTON NEB      N/A     36  32  85 SW5         N/A
KIT CARSON CO    N/A     29  15  54 CALM        N/A
YUMA CO        FAIR      34  16  47 W12       30.00R
$$




USA.gov is the U.S. government's official web portal to all federal, state and local government web resources and services.